Tracking 18840 objects as of 18-November-2017
HD Live streaming from Space Station
objects crossing your sky now

FENGYUN 1C DEB

Track FENGYUN 1C DEB now!
10-day predictions


NORAD ID: 30132
Int'l Code: 1999-025SM
Perigee: 849.1 km
Apogee: 1,007.5 km
Inclination: 99.7 °
Period: 103.4 minutes
Semi major axis: 7299 km
RCS: 0.03 m2 (small)
Launch date: May 10, 1999
Source: People's Republic of China (PRC)
Launch site: Taiyaun Space Center, China (TSC)

Note: This is SATELLITE DEBRIS
aabbcc
Your satellite tracking list
Your tracking list is empty




NASA's NSSDC Master Catalog

Two Line Element Set (TLE):
1 30132U 99025SM  17321.46742632  .00000166  00000-0  15964-3 0  9993
2 30132  99.6578 130.6286 0108507  31.0060  27.5782 13.92137197550680
Source of the keplerian elements: AFSPC